OBJECT AD, 62404

Orbit data source: Space-Track

You're viewing an Uncataloged Satellite

Recently launched and/or uncataloged satellites may have evolving metadata. Metadata may include but not limited to: Owner, Maufacturer, Bus, Motor, and Mission.

OBJECT AD, 62404 is a satellite in LEO that was launched on Sat, 21 Dec 2024 UTC via an FALCON 9 launch vehicle from the Air Force Western Test Range (AFWTR). Unknown objects in Earth's orbit typically refer to objects detected orbiting the Earth but have not yet been identified or cataloged. These objects could be anything from previously untracked satellites, spent rocket stages, debris from satellite collisions, or even natural meteoroids temporarily captured by Earth's gravity.

Loading next visibility...
Identifier
62404, 2024-247AD
Orbit
LEO
Country
Flag of TBDTBD
Related business
None
Manufacturer
THINK
Mission
Operational Commercial Technology
Bus & Motor
CUBESAT 12U?, Unknown motor
Mass
~20 kg wet, ~20 kg dry
Launch date (UTC)
2024-12-21 (8 months ago)
Launch vehicle
FALCON 9
Launch site
Air Force Western Test Range (AFWTR)
Object type
Unknown
Shape & HBR
Box + 2 Pan, 1.0 m
Radar Cross Section
0.183 m², Small (<0.1 m²)

Expand to show TLE details & history
Last TLE update: 2 days ago

TLE from 2 days ago
0 OBJECT AD
1 62404U 24247AD  25239.97205620  .00023864  00000-0  80665-3 0  9998
2 62404  44.9989  83.4187 0005994 240.1715 119.8574 15.30273898 38247
Epoch: 2025-08-27T23:19Z
TLE epoch observation values (Epoch: 2025-08-27T23:19:45.655Z)
Latitude
0.00001°
Longitude
117.03673°
Altitude
477.04 km
Speed
7.628 km/s
True Right ascension
05h 33m 40s
True Declination
0° 00' 00"
Sunlit
Object was in daylight at epoch
Visualization orbit readout
Latitude
Unknown
Longitude
Unknown
Altitude
Unknown
Speed
Unknown
Apparent Right ascension
Unknown
Apparent Declination
Unknown
Sunlit
N/A
Visualization observer readout
Local Sidereal Time
16:59:56
Azimuth
Unknown
Elevation
Unknown
Doppler factor
Unknown
Orbital elements
Apogee altitude
480.714 km
Perigee altitude
472.497 km
Semi-major axis
6,854.743 km
Eccentricity
0.0006
Inclination
44.9989°
RAAN
83.4187°
Arg. of periapsis
240.1715°
True anomaly
119.91695°
Mean anomaly
119.8574°
Eccentric anomaly
119.88718°
Mean motion
3.82434 °/min
Orbital period
94.13 mins
BSTAR
0.00080665
Loading maneuver chart data...
Computing Atmospheric mass density...
Loading historical data...
Loading historical data...
Loading historical data...
Loading historical data...
Loading historical data...
Loading historical data...
Loading historical data...

Documentation

Showing up to 5 results
|